This is the latest recevied weather packets stored in our database for station/object HARMALA. If no packets are shown the sender has not sent any weather packets the latest 10 day(s).
| Time | Temp. | Humidity | Pressure | Rain* | Wind** | Luminosity | Snow |
|---|---|---|---|---|---|---|---|
| 1777872433 | 5.56° C | 59% | 1005 hPa | 0 mm | - | - | - |
| 1777871232 | 5° C | 61% | 1005.2 hPa | 0 mm | - | - | - |
| 1777870032 | 5° C | 60% | 1005.4 hPa | 0 mm | - | - | - |
| 1777868832 | 3.89° C | 65% | 1005.7 hPa | 0 mm | - | - | - |
| 1777867632 | 3.33° C | 67% | 1005.9 hPa | 0 mm | - | - | - |
| 1777866432 | 2.78° C | 70% | 1006.1 hPa | 0 mm | - | - | - |
| 1777865233 | 1.67° C | 75% | 1006.2 hPa | 0 mm | - | - | - |
| 1777864033 | 1.67° C | 77% | 1006.4 hPa | 0 mm | - | - | - |
| 1777862832 | 0.56° C | 79% | 1006.6 hPa | 0 mm | - | - | - |
| 1777861632 | 0° C | 80% | 1006.8 hPa | 0 mm | - | - | - |
| 1777860432 | -0.56° C | 80% | 1006.8 hPa | 0 mm | - | - | - |
| 1777859232 | -0.56° C | 80% | 1006.9 hPa | 0 mm | - | - | - |
| 1777858032 | 0° C | 76% | 1007.1 hPa | 0 mm | - | - | - |
| 1777856833 | 0° C | 77% | 1007.2 hPa | 0 mm | - | - | - |
| 1777855632 | 0.56° C | 74% | 1007.3 hPa | 0 mm | - | - | - |
| 1777854433 | 1.11° C | 72% | 1007.4 hPa | 0 mm | - | - | - |
| 1777853232 | 1.67° C | 69% | 1007.5 hPa | 0 mm | - | - | - |
| 1777852032 | 2.22° C | 65% | 1007.6 hPa | 0 mm | - | - | - |
| 1777850832 | 2.22° C | 65% | 1007.5 hPa | 0 mm | - | - | - |
| 1777849631 | 2.78° C | 61% | 1007.7 hPa | 0 mm | - | - | - |
| 1777848432 | 3.89° C | 57% | 1007.9 hPa | 0 mm | - | - | - |
| 1777847232 | 3.89° C | 56% | 1007.9 hPa | 0 mm | - | - | - |
| 1777846031 | 4.44° C | 53% | 1008.1 hPa | 0 mm | - | - | - |
| 1777844831 | 4.44° C | 54% | 1008.2 hPa | 0 mm | - | - | - |
| 1777843631 | 5.56° C | 52% | 1008.1 hPa | 0 mm | - | - | - |
* Rain latest hour (hover to see other rain measurements)
** Current wind speed in m/s (hover to see current wind gust speed)